When you browse on this site, cookies collect data to enhance your experience and personalize the content and advertising you see.
Visit our Privacy Policy to learn more. By continuing to use the site, you agree to this use of cookies and data.
  • In Latvia
  • List of Countries
  • For 7 days
  • Water Temperature
  • Satellite Maps
  • Weather Map
  • Weather Widgets
  • user-avatar
    Login

    Hourly Weather Cobán

    Today, 19 June, Wednesday

    Time Temperature Precipitation Wind Pressure Humidity
    00:00 +18°C° 0.1 mm 0 mps 654 mmHg 98%
    01:00 +18°C° 0.2 mm 0 mps 654 mmHg 98%
    02:00 +18°C° 0.2 mm 0 mps 653 mmHg 98%
    03:00 +18°C° 0.2 mm 0 mps 653 mmHg 98%
    04:00 +18°C° 0.2 mm 0 mps 653 mmHg 98%
    05:00 +18°C° 0.2 mm 0 mps 653 mmHg 99%
    06:00 +18°C° 0.2 mm 0 mps 653 mmHg 99%
    07:00 +20°C° 0.4 mm 0 mps 654 mmHg 92%
    08:00 +22°C° 0.4 mm 0 mps 655 mmHg 85%
    09:00 +23°C° 0.4 mm 0 mps 656 mmHg 79%
    10:00 +26°C° 0.6 mm 1 mps 655 mmHg 78%
    11:00 +27°C° 0.6 mm 1 mps 655 mmHg 77%
    12:00 +27°C° 0.6 mm 1 mps 655 mmHg 76%
    13:00 +27°C° 1.7 mm 1 mps 654 mmHg 78%
    14:00 +26°C° 1.7 mm 1 mps 654 mmHg 81%
    15:00 +26°C° 1.7 mm 1 mps 653 mmHg 83%
    16:00 +25°C° 0.8 mm 1 mps 653 mmHg 87%
    17:00 +24°C° 0.8 mm 1 mps 653 mmHg 91%
    18:00 +21°C° 0.8 mm 0 mps 652 mmHg 95%
    19:00 +21°C° 0.3 mm 0 mps 653 mmHg 96%
    20:00 +20°C° 0.3 mm 0 mps 653 mmHg 97%
    21:00 +19°C° 0.3 mm 0 mps 653 mmHg 98%
    22:00 +19°C° 0.3 mm 0 mps 653 mmHg 98%
    23:00 +19°C° 0.3 mm 0 mps 653 mmHg 98%

    Tomorrow, 20 June, Thursday

    Time Temperature Precipitation Wind Pressure Humidity
    00:00 +19°C° 0.3 mm 0 mps 654 mmHg 98%
    01:00 +18°C° 0 mm 0 mps 653 mmHg 98%
    02:00 +18°C° 0 mm 0 mps 653 mmHg 98%
    03:00 +18°C° 0 mm 0 mps 652 mmHg 98%
    04:00 +18°C° 0.1 mm 0 mps 653 mmHg 98%
    05:00 +18°C° 0.1 mm 0 mps 653 mmHg 98%
    06:00 +18°C° 0.1 mm 0 mps 653 mmHg 98%
    07:00 +20°C° 0.2 mm 0 mps 654 mmHg 92%
    08:00 +22°C° 0.2 mm 0 mps 654 mmHg 86%
    09:00 +23°C° 0.2 mm 0 mps 655 mmHg 81%
    10:00 +24°C° 0.5 mm 0 mps 655 mmHg 78%
    11:00 +27°C° 0.5 mm 1 mps 655 mmHg 76%
    12:00 +27°C° 0.5 mm 1 mps 655 mmHg 73%
    13:00 +27°C° 1.1 mm 1 mps 654 mmHg 77%
    14:00 +26°C° 1.1 mm 1 mps 654 mmHg 81%
    15:00 +26°C° 1.1 mm 1 mps 653 mmHg 85%
    16:00 +25°C° 0.8 mm 1 mps 653 mmHg 88%
    17:00 +24°C° 0.8 mm 1 mps 653 mmHg 91%
    18:00 +23°C° 0.8 mm 1 mps 653 mmHg 94%
    19:00 +22°C° 0.4 mm 1 mps 653 mmHg 95%
    20:00 +21°C° 0.4 mm 1 mps 654 mmHg 97%
    21:00 +20°C° 0.4 mm 1 mps 654 mmHg 98%
    22:00 +20°C° 0 mm 1 mps 654 mmHg 98%
    23:00 +18°C° 0 mm 0 mps 654 mmHg 98%

    Day after tomorrow, 21 June, Friday

    Time Temperature Precipitation Wind Pressure Humidity
    00:00 +18°C° 0 mm 0 mps 654 mmHg 97%
    01:00 +17°C° 0 mm 0 mps 653 mmHg 98%
    02:00 +17°C° 0 mm 0 mps 653 mmHg 98%
    03:00 +17°C° 0 mm 0 mps 652 mmHg 98%
    04:00 +17°C° 0 mm 0 mps 653 mmHg 98%
    05:00 +17°C° 0 mm 0 mps 653 mmHg 98%
    06:00 +18°C° 0 mm 0 mps 653 mmHg 98%
    07:00 +19°C° 0 mm 0 mps 654 mmHg 93%
    08:00 +20°C° 0 mm 0 mps 655 mmHg 88%
    09:00 +22°C° 0 mm 0 mps 655 mmHg 82%
    10:00 +25°C° 0.6 mm 1 mps 655 mmHg 80%
    11:00 +25°C° 0.6 mm 1 mps 655 mmHg 78%
    12:00 +26°C° 0.6 mm 1 mps 655 mmHg 76%
    13:00 +26°C° 1.3 mm 1 mps 655 mmHg 79%
    14:00 +25°C° 1.3 mm 1 mps 654 mmHg 82%
    15:00 +25°C° 1.3 mm 1 mps 654 mmHg 85%
    16:00 +24°C° 1.3 mm 1 mps 654 mmHg 88%
    17:00 +23°C° 1.3 mm 1 mps 654 mmHg 91%
    18:00 +22°C° 1.3 mm 1 mps 654 mmHg 95%
    19:00 +22°C° 1.8 mm 1 mps 654 mmHg 95%
    20:00 +21°C° 1.8 mm 1 mps 654 mmHg 96%
    21:00 +21°C° 1.8 mm 1 mps 655 mmHg 97%
    22:00 +21°C° 1.1 mm 1 mps 655 mmHg 97%
    23:00 +18°C° 1.1 mm 0 mps 654 mmHg 98%

    22 June, Saturday

    Time Temperature Precipitation Wind Pressure Humidity
    00:00 +18°C° 1.1 mm 0 mps 654 mmHg 98%
    01:00 +18°C° 0.7 mm 0 mps 654 mmHg 98%
    02:00 +18°C° 0.7 mm 0 mps 654 mmHg 98%
    03:00 +18°C° 0.6 mm 0 mps 653 mmHg 98%
    04:00 +17°C° 0.6 mm 0 mps 653 mmHg 98%
    05:00 +17°C° 0.6 mm 0 mps 653 mmHg 98%
    06:00 +17°C° 0.6 mm 0 mps 654 mmHg 98%
    07:00 +19°C° 0 mm 0 mps 654 mmHg 93%
    08:00 +21°C° 0 mm 0 mps 655 mmHg 88%
    09:00 +22°C° 0 mm 0 mps 656 mmHg 83%
    10:00 +25°C° 0.8 mm 1 mps 656 mmHg 83%
    11:00 +25°C° 0.8 mm 1 mps 655 mmHg 83%
    12:00 +25°C° 0.8 mm 1 mps 655 mmHg 83%
    13:00 +25°C° 1.5 mm 1 mps 655 mmHg 84%
    14:00 +25°C° 1.5 mm 1 mps 654 mmHg 84%
    15:00 +25°C° 1.5 mm 1 mps 654 mmHg 85%
    16:00 +24°C° 1.8 mm 1 mps 653 mmHg 89%
    17:00 +23°C° 1.8 mm 1 mps 653 mmHg 93%
    18:00 +22°C° 1.8 mm 1 mps 653 mmHg 97%
    19:00 +21°C° 1.8 mm 1 mps 654 mmHg 97%
    20:00 +21°C° 1.8 mm 1 mps 654 mmHg 98%
    21:00 +20°C° 1.8 mm 1 mps 654 mmHg 98%
    22:00 +20°C° 0.9 mm 1 mps 654 mmHg 98%
    23:00 +18°C° 0.9 mm 0 mps 654 mmHg 98%

    23 June, Sunday

    Time Temperature Precipitation Wind Pressure Humidity
    00:00 +18°C° 0.9 mm 0 mps 654 mmHg 98%
    01:00 +18°C° 0.5 mm 0 mps 654 mmHg 98%
    02:00 +17°C° 0.5 mm 0 mps 653 mmHg 98%
    03:00 +17°C° 0.5 mm 0 mps 653 mmHg 98%
    04:00 +17°C° 0 mm 0 mps 653 mmHg 98%
    05:00 +17°C° 0 mm 0 mps 653 mmHg 98%
    06:00 +17°C° 0 mm 0 mps 653 mmHg 98%
    07:00 +19°C° 0.1 mm 0 mps 654 mmHg 93%
    08:00 +20°C° 0.1 mm 0 mps 655 mmHg 88%
    09:00 +22°C° 0.1 mm 0 mps 655 mmHg 83%
    10:00 +25°C° 0.1 mm 1 mps 655 mmHg 75%
    11:00 +26°C° 0.1 mm 1 mps 655 mmHg 67%
    12:00 +28°C° 0.1 mm 1 mps 655 mmHg 60%
    13:00 +27°C° 0.4 mm 1 mps 655 mmHg 64%
    14:00 +27°C° 0.4 mm 1 mps 654 mmHg 68%
    15:00 +26°C° 0.4 mm 1 mps 654 mmHg 73%
    16:00 +25°C° 0.6 mm 1 mps 653 mmHg 80%
    17:00 +23°C° 0.6 mm 1 mps 653 mmHg 87%
    18:00 +22°C° 0.6 mm 1 mps 653 mmHg 94%
    19:00 +21°C° 0.2 mm 1 mps 653 mmHg 95%
    20:00 +21°C° 0.2 mm 1 mps 654 mmHg 96%
    21:00 +20°C° 0.2 mm 1 mps 654 mmHg 97%
    22:00 +20°C° 0.1 mm 1 mps 654 mmHg 97%
    23:00 +19°C° 0.1 mm 1 mps 654 mmHg 97%

    24 June, Monday

    Time Temperature Precipitation Wind Pressure Humidity
    00:00 +19°C° 0.1 mm 1 mps 654 mmHg 97%
    01:00 +17°C° 0 mm 0 mps 653 mmHg 97%
    02:00 +16°C° 0 mm 0 mps 653 mmHg 96%
    03:00 +16°C° 0 mm 0 mps 652 mmHg 96%
    04:00 +16°C° 0 mm 0 mps 652 mmHg 96%
    05:00 +16°C° 0 mm 0 mps 652 mmHg 96%
    06:00 +16°C° 0 mm 0 mps 653 mmHg 97%
    07:00 +18°C° 0 mm 0 mps 653 mmHg 89%
    08:00 +20°C° 0 mm 0 mps 654 mmHg 81%
    09:00 +23°C° 0 mm 0 mps 655 mmHg 73%
    10:00 +26°C° 0 mm 1 mps 655 mmHg 67%
    11:00 +27°C° 0 mm 1 mps 655 mmHg 60%
    12:00 +28°C° 0 mm 1 mps 655 mmHg 54%
    13:00 +28°C° 0.3 mm 1 mps 654 mmHg 58%
    14:00 +27°C° 0.3 mm 1 mps 654 mmHg 62%
    15:00 +27°C° 0.3 mm 1 mps 653 mmHg 66%
    16:00 +25°C° 0.4 mm 1 mps 653 mmHg 73%
    17:00 +24°C° 0.4 mm 1 mps 653 mmHg 80%
    18:00 +22°C° 0.4 mm 1 mps 653 mmHg 86%
    19:00 +21°C° 0 mm 1 mps 653 mmHg 89%
    20:00 +20°C° 0 mm 1 mps 653 mmHg 93%
    21:00 +19°C° 0 mm 1 mps 654 mmHg 96%
    22:00 +19°C° 0 mm 1 mps 654 mmHg 96%
    23:00 +18°C° 0 mm 1 mps 653 mmHg 96%
    Show more